Change the Weather History Date:

Tuesday, February 12, 2013

  Actual Average (KLCH) Record (KLCH)
Temperature  
Mean Temperature 63 °F 54 °F  
Max Temperature 71 °F 64 °F 79 °F (1932)
Min Temperature 55 °F 45 °F 3 °F (1899)
Degree Days  
Heating Degree Days 2 11  
Month to date heating degree days 142  
Since 1 July heating degree days 1133  
Cooling Degree Days 0 0  
Month to date cooling degree days 0  
Year to date cooling degree days 10  
Growing Degree Days 13 (Base 50)    
Moisture  
Dew Point 58 °F    
Average Humidity 95    
Maximum Humidity 100    
Minimum Humidity 88    
Precipitation  
Precipitation 0.01 in 0.13 in 3.39 in (1997)
Month to date precipitation 1.55  
Year to date precipitation 6.78  
Snow  
Snow 0.00 in 0.00 in 4.00 in (1960)
Month to date snowfall 0.1  
Since 1 July snowfall 0.1  
Snow Depth -    
Sea Level Pressure  
Sea Level Pressure 29.87 in    
Wind  
Wind Speed 9 mph (NNE)    
Max Wind Speed 17 mph    
Max Gust Speed 25 mph    
Visibility 6 miles    
Events Fog , Rain    
T = Trace of Precipitation, MM = Missing Value Source: NWS Daily Summary

Daily Weather History Graph

Daily Weather History Graph

Search for Another Location

Airport or City:

Trip Planner

Search our weather history database for the weather conditions in past years. The results will help you decide how hot, cold, wet, or windy it might be!

Date:

Astronomy

Feb. 12, 2013 Rise Set
Actual Time 6:55 AM CST 6:00 PM CST
Civil Twilight 6:31 AM CST 6:24 PM CST
Nautical Twilight 6:03 AM CST 6:52 PM CST
Astronomical Twilight 5:35 AM CST 7:20 PM CST
Moon 8:08 AM CST (2/12) 8:43 PM CST (2/12)
Length of Visible Light 11h 53m
Length of Day
11h 04m
Waxing Crescent, 7% of the Moon is Illuminated
Feb 12
Waxing Crescent
Feb 17
First Quarter
Feb 25
Full
Mar 4
Last Quarter
Mar 11
New

Hourly Weather History & Observations

Time (CST) Temp. Dew Point Humidity Pressure Visibility Wind Dir Wind Speed Gust Speed Precip Events Conditions
12:15 AM 55.4 °F 53.6 °F 94% 30.01 in 10.0 mi NE 12.7 mph 17.3 mph N/A Rain Light Rain
12:35 AM 55.4 °F 53.6 °F 94% 30.00 in 10.0 mi NNE 13.8 mph 21.9 mph N/A   Light Drizzle
12:55 AM 55.4 °F 53.6 °F 94% 29.99 in 10.0 mi NE 11.5 mph 17.3 mph N/A   Overcast
1:15 AM 55.4 °F 53.6 °F 94% 29.98 in 10.0 mi NE 6.9 mph - N/A   Overcast
1:35 AM 55.4 °F 53.6 °F 94% 29.97 in 10.0 mi NE 9.2 mph - N/A   Overcast
1:55 AM 55.4 °F 53.6 °F 94% 29.97 in 10.0 mi NE 11.5 mph 18.4 mph N/A   Overcast
2:15 AM 55.4 °F 53.6 °F 94% 29.97 in 10.0 mi NE 11.5 mph 18.4 mph N/A   Overcast
2:35 AM 55.4 °F 53.6 °F 94% 29.96 in 10.0 mi NE 9.2 mph 16.1 mph N/A   Overcast
2:55 AM 55.4 °F 53.6 °F 94% 29.96 in 7.0 mi NE 9.2 mph 16.1 mph N/A   Overcast
3:15 AM 55.4 °F 53.6 °F 94% 29.95 in 7.0 mi NE 9.2 mph 17.3 mph N/A   Overcast
3:35 AM 55.4 °F 53.6 °F 94% 29.93 in 10.0 mi NE 11.5 mph 17.3 mph N/A   Overcast
3:55 AM 55.4 °F 53.6 °F 94% 29.93 in 7.0 mi ENE 12.7 mph 19.6 mph N/A   Overcast
4:15 AM 55.4 °F 53.6 °F 94% 29.93 in 7.0 mi ENE 10.4 mph 16.1 mph N/A   Light Drizzle
4:35 AM 55.4 °F 53.6 °F 94% 29.91 in 5.0 mi ENE 10.4 mph 19.6 mph N/A Rain Light Rain
5:15 AM 55.4 °F 55.4 °F 100% 29.91 in 4.0 mi ENE 10.4 mph - N/A   Overcast
5:35 AM 55.4 °F 55.4 °F 100% 29.91 in 3.0 mi ENE 11.5 mph 17.3 mph N/A   Overcast
5:55 AM 55.4 °F 55.4 °F 100% 29.89 in 4.0 mi East 11.5 mph - N/A   Overcast
6:15 AM 55.4 °F 55.4 °F 100% 29.89 in 3.0 mi East 8.1 mph - N/A   Overcast
6:35 AM 55.4 °F 55.4 °F 100% 29.88 in 3.0 mi East 10.4 mph 16.1 mph N/A   Overcast
6:55 AM 55.4 °F 55.4 °F 100% 29.88 in 3.0 mi ENE 9.2 mph - N/A   Overcast
7:15 AM 55.4 °F 55.4 °F 100% 29.88 in 2.5 mi East 8.1 mph - N/A   Overcast
7:35 AM 55.4 °F 55.4 °F 100% 29.87 in 1.2 mi East 9.2 mph - N/A   Overcast
7:55 AM 55.4 °F 55.4 °F 100% 29.86 in 1.0 mi East 6.9 mph - N/A   Overcast
8:15 AM 57.2 °F 57.2 °F 100% 29.87 in 1.0 mi East 4.6 mph - N/A   Overcast
8:35 AM 57.2 °F 57.2 °F 100% 29.87 in 1.0 mi ESE 6.9 mph - N/A Rain Light Rain
8:55 AM 59.0 °F 59.0 °F 100% 29.87 in 1.0 mi East 5.8 mph - N/A   Overcast
9:15 AM 59.0 °F 59.0 °F 100% 29.86 in 0.8 mi East 4.6 mph - N/A   Overcast
9:35 AM 59.0 °F 59.0 °F 100% 29.86 in 1.0 mi East 5.8 mph - N/A   Overcast
9:55 AM 59.0 °F 59.0 °F 100% 29.87 in 1.0 mi East 3.5 mph - N/A   Overcast
10:15 AM 60.8 °F 60.8 °F 100% 29.86 in 0.8 mi East 3.5 mph - N/A   Overcast
10:35 AM 60.8 °F 60.8 °F 100% 29.85 in 0.5 mi Calm Calm - N/A Fog Fog
10:55 AM 60.8 °F 60.8 °F 100% 29.84 in 0.8 mi East 5.8 mph - N/A   Overcast
11:15 AM 62.6 °F 62.6 °F 100% 29.85 in 0.8 mi ESE 4.6 mph - N/A   Overcast
11:35 AM 62.6 °F 62.6 °F 100% 29.84 in 0.5 mi East 4.6 mph - N/A Fog Fog
11:55 AM 62.6 °F 62.6 °F 100% 29.83 in 0.2 mi East 4.6 mph - N/A Fog Fog
12:15 PM 64.4 °F 64.4 °F 100% 29.82 in 0.2 mi Calm Calm - N/A Fog Fog
12:35 PM 64.4 °F 64.4 °F 100% 29.82 in 0.2 mi Calm Calm - N/A Fog Fog
12:55 PM 64.4 °F 64.4 °F 100% 29.80 in 0.2 mi Calm Calm - N/A Fog Fog
1:15 PM 68.0 °F 68.0 °F 100% 29.79 in 1.0 mi SSE 3.5 mph - N/A   Overcast
1:35 PM 68.0 °F 68.0 °F 100% 29.77 in 3.0 mi South 3.5 mph - N/A Rain Light Rain
1:55 PM 69.8 °F 69.8 °F 100% 29.76 in 5.0 mi SSW 11.5 mph - N/A   Overcast
2:15 PM 69.8 °F 69.8 °F 100% 29.75 in 5.0 mi SSW 12.7 mph 18.4 mph 0.01 in Rain Light Rain
2:35 PM 71.6 °F 69.8 °F 94% 29.76 in 7.0 mi SW 15.0 mph 23.0 mph 0.01 in   Overcast
2:55 PM 71.6 °F 69.8 °F 94% 29.75 in 7.0 mi SW 12.7 mph 20.7 mph 0.01 in   Overcast
3:15 PM 69.8 °F 68.0 °F 94% 29.77 in 5.0 mi West 10.4 mph - N/A   Overcast
3:35 PM 68.0 °F 66.2 °F 94% 29.77 in 4.0 mi WNW 13.8 mph 25.3 mph N/A   Overcast
3:55 PM 64.4 °F 62.6 °F 94% 29.79 in 7.0 mi WNW 17.3 mph 25.3 mph N/A   Overcast
4:15 PM 62.6 °F 60.8 °F 94% 29.81 in 10.0 mi WNW 12.7 mph 21.9 mph N/A   Overcast
4:35 PM 62.6 °F 60.8 °F 94% 29.80 in 10.0 mi NW 10.4 mph - N/A   Overcast
4:55 PM 60.8 °F 59.0 °F 94% 29.82 in 10.0 mi NW 10.4 mph - N/A   Overcast
5:15 PM 60.8 °F 59.0 °F 94% 29.83 in 10.0 mi NW 10.4 mph - N/A   Overcast
5:35 PM 60.8 °F 59.0 °F 94% 29.83 in 10.0 mi WNW 10.4 mph - N/A   Overcast
5:55 PM 60.8 °F 57.2 °F 88% 29.83 in 10.0 mi WNW 3.5 mph - N/A   Overcast
6:15 PM 59.0 °F 57.2 °F 94% 29.83 in 10.0 mi WNW 6.9 mph - N/A   Scattered Clouds
6:35 PM 59.0 °F 57.2 °F 94% 29.84 in 10.0 mi WNW 6.9 mph - N/A   Mostly Cloudy
6:55 PM 59.0 °F 55.4 °F 88% 29.86 in 10.0 mi WNW 13.8 mph 18.4 mph N/A   Mostly Cloudy
7:15 PM 59.0 °F 55.4 °F 88% 29.86 in 10.0 mi NW 9.2 mph - N/A   Overcast
7:35 PM 59.0 °F 55.4 °F 88% 29.87 in 10.0 mi NW 11.5 mph - N/A   Overcast
7:55 PM 59.0 °F 55.4 °F 88% 29.88 in 10.0 mi NW 9.2 mph - N/A   Overcast
8:15 PM 59.0 °F 55.4 °F 88% 29.89 in 10.0 mi NNW 9.2 mph - N/A   Mostly Cloudy
8:35 PM 55.4 °F 53.6 °F 94% 29.89 in 10.0 mi NW 8.1 mph - N/A   Scattered Clouds
8:55 PM 55.4 °F 53.6 °F 94% 29.90 in 10.0 mi NW 9.2 mph - N/A   Clear
9:15 PM 55.4 °F 53.6 °F 94% 29.90 in 10.0 mi NNW 8.1 mph - N/A   Clear
9:35 PM 55.4 °F 53.6 °F 94% 29.91 in 10.0 mi NNW 8.1 mph - N/A   Clear
9:55 PM 55.4 °F 53.6 °F 94% 29.92 in 10.0 mi NNW 9.2 mph - N/A   Clear
10:15 PM 55.4 °F 51.8 °F 88% 29.92 in 10.0 mi NW 8.1 mph - N/A   Clear
10:35 PM 55.4 °F 51.8 °F 88% 29.91 in 10.0 mi NW 8.1 mph - N/A   Clear
10:55 PM 55.4 °F 51.8 °F 88% 29.92 in 10.0 mi NW 9.2 mph - N/A   Clear
11:15 PM 55.4 °F 51.8 °F 88% 29.93 in 10.0 mi NW 5.8 mph - N/A   Clear
11:35 PM 55.4 °F 51.8 °F 88% 29.93 in 10.0 mi WNW 5.8 mph - N/A   Clear
11:55 PM 55.4 °F 51.8 °F 88% 29.94 in 10.0 mi NW 5.8 mph - N/A   Clear